User: anonymous   Login
Location: Caltech
(34.1382°N, 118.1253°W)
Time: 01:30:56
(UTC-07:00)
Language:

Cosmos 44 Rocket - Orbit

View from above orbital plane
View from above orbital plane
View from above satellite
View from above satellite

Ground track
Ground track

The orbit data is extracted from the following two-line orbital elements,

1 00877U 64053B   14298.16062056  .00000569  00000-0  14353-3 0  7649
2 00877 065.0795 234.4168 0054635 141.4381 219.0641 14.58921337660568
Epoch (UTC): 25 October 2014 03:51:17
Eccentricity: 0.0054635
inclination: 65.0795°
perigee height: 658 km
apogee height: 735 km
right ascension of ascending node: 234.4168°
argument of perigee: 141.4381°
revolutions per day: 14.58921337
mean anomaly at epoch: 219.0641°
orbit number at epoch: 66056

The dashed part of the orbit path shows where the satellite is in the earth's shadow,  

DLR